UAE1WT KLAX-SBGR

Flight info

Callsign UAE1WT
Flight time N/A
Altitude 37000
Route PNDAH2 TCATE DCT PPE UL655 ASOKU/N0487F390 UL655 PABON/N0482F410 UL655 DIKAL UZ52 PUMRO UZ42 ZARES
Aircraft A359/H-SDE2E3GHIJ1J3J4J5LM1ORWXY/LB1D1

Departure

Time 2026-05-01 14:48
Airport Los Angeles International Airport (KLAX)

Arrival

Time N/A
Airport São Paulo/Guarulhos–Governor André Franco Montoro International Airport (SBGR)
Time Latitude Longitude Altitude Speed Heading
2026-05-01 14:25 33.93959 -118.40918 102 ft 0 kts 289°
2026-05-01 14:36 33.93958 -118.40913 102 ft 2 kts 288°
2026-05-01 14:36 33.93953 -118.40894 103 ft 2 kts 290°
2026-05-01 14:36 33.93947 -118.40875 102 ft 2 kts 290°
2026-05-01 14:37 33.93941 -118.40857 101 ft 2 kts 290°
2026-05-01 14:37 33.93935 -118.40838 102 ft 2 kts 290°
2026-05-01 14:37 33.93930 -118.40819 102 ft 2 kts 304°
2026-05-01 14:37 33.93916 -118.40811 100 ft 2 kts 355°
2026-05-01 14:38 33.93899 -118.40811 102 ft 2 kts 38°
2026-05-01 14:38 33.93886 -118.40823 104 ft 2 kts 36°
2026-05-01 14:38 33.93876 -118.40838 103 ft 2 kts 82°
2026-05-01 14:38 33.93875 -118.40855 103 ft 1 kts 85°
2026-05-01 14:39 33.93874 -118.40859 103 ft 0 kts 84°
2026-05-01 14:41 33.93875 -118.40855 103 ft 2 kts 84°
2026-05-01 14:41 33.93877 -118.40802 103 ft 10 kts 95°
2026-05-01 14:41 33.93830 -118.40724 106 ft 13 kts 127°
2026-05-01 14:42 33.93817 -118.40605 109 ft 17 kts 85°
2026-05-01 14:42 33.93833 -118.40443 109 ft 22 kts 83°
2026-05-01 14:42 33.93853 -118.40244 110 ft 26 kts 83°
2026-05-01 14:42 33.93877 -118.40016 111 ft 27 kts 83°
2026-05-01 14:43 33.93899 -118.39788 110 ft 27 kts 83°
2026-05-01 14:43 33.93923 -118.39563 109 ft 27 kts 83°
2026-05-01 14:43 33.93946 -118.39340 107 ft 27 kts 82°
2026-05-01 14:43 33.93968 -118.39117 106 ft 26 kts 83°
2026-05-01 14:44 33.93991 -118.38901 108 ft 26 kts 83°
2026-05-01 14:44 33.94033 -118.38485 109 ft 24 kts 82°
2026-05-01 14:44 33.94053 -118.38298 109 ft 24 kts 83°
2026-05-01 14:45 33.94072 -118.38109 109 ft 11 kts 83°
2026-05-01 14:45 33.94073 -118.38047 109 ft 0 kts 102°
2026-05-01 14:45 33.94073 -118.38045 109 ft 1 kts 103°
2026-05-01 14:46 33.94067 -118.38030 108 ft 2 kts 117°
2026-05-01 14:46 33.94056 -118.38017 111 ft 0 kts 139°
2026-05-01 14:46 33.94038 -118.38005 111 ft 6 kts 156°
2026-05-01 14:47 33.94004 -118.38007 113 ft 6 kts 205°
2026-05-01 14:47 33.93979 -118.38077 114 ft 14 kts 259°
2026-05-01 14:47 33.93966 -118.38205 112 ft 0 kts 263°
2026-05-01 14:48 33.93920 -118.38656 115 ft 85 kts 263°
2026-05-01 14:48 33.93861 -118.39238 112 ft 126 kts 263°
2026-05-01 14:48 33.93573 -118.41988 822 ft 174 kts 261°
2026-05-01 14:49 33.93200 -118.45113 1652 ft 210 kts 257°
2026-05-01 14:49 33.91607 -118.48376 2112 ft 245 kts 230°
2026-05-01 14:50 33.89676 -118.51067 2850 ft 259 kts 228°
2026-05-01 14:50 33.86812 -118.54845 4079 ft 267 kts 219°
2026-05-01 14:51 33.85146 -118.55839 4568 ft 272 kts 193°
2026-05-01 14:51 33.81377 -118.55353 5593 ft 277 kts 167°
2026-05-01 14:52 33.77607 -118.54262 6648 ft 280 kts 167°
2026-05-01 14:52 33.75704 -118.53726 7165 ft 281 kts 168°
2026-05-01 14:52 33.71875 -118.52662 8232 ft 284 kts 166°
2026-05-01 14:53 33.70069 -118.51715 8723 ft 286 kts 144°
2026-05-01 14:53 33.68745 -118.49948 9289 ft 287 kts 122°
2026-05-01 14:53 33.67794 -118.47844 9871 ft 287 kts 117°
2026-05-01 14:53 33.66896 -118.45686 10279 ft 293 kts 116°
2026-05-01 14:54 33.65966 -118.43449 10496 ft 306 kts 116°
2026-05-01 14:54 33.64986 -118.41120 10706 ft 319 kts 116°
2026-05-01 14:54 33.63960 -118.38708 10932 ft 331 kts 116°
2026-05-01 14:54 33.62891 -118.36210 11134 ft 342 kts 116°
2026-05-01 14:55 33.61783 -118.33631 11345 ft 354 kts 116°
2026-05-01 14:55 33.60637 -118.30969 11532 ft 364 kts 116°
2026-05-01 14:55 33.59459 -118.28239 11777 ft 373 kts 116°
2026-05-01 14:55 33.58258 -118.25459 12134 ft 378 kts 116°
2026-05-01 14:56 33.57042 -118.22645 12497 ft 382 kts 116°
2026-05-01 14:56 33.55814 -118.19807 12874 ft 385 kts 116°
2026-05-01 14:56 33.54575 -118.16945 13256 ft 389 kts 116°
2026-05-01 14:56 33.53325 -118.14053 13621 ft 393 kts 115°
2026-05-01 14:57 33.52067 -118.11130 13961 ft 396 kts 115°
2026-05-01 14:57 33.49525 -118.05222 14639 ft 401 kts 115°
2026-05-01 14:57 33.48240 -118.02241 15008 ft 404 kts 115°
2026-05-01 14:58 33.46807 -117.99336 15334 ft 408 kts 126°
2026-05-01 14:58 33.44857 -117.96848 15677 ft 412 kts 136°
2026-05-01 14:58 33.42740 -117.94581 16029 ft 415 kts 138°
2026-05-01 14:58 33.40558 -117.92300 16360 ft 417 kts 138°
2026-05-01 14:59 33.38368 -117.90003 16707 ft 420 kts 138°
2026-05-01 14:59 33.36168 -117.87686 17039 ft 423 kts 138°
2026-05-01 14:59 33.33956 -117.85352 17378 ft 425 kts 138°
2026-05-01 14:59 33.31731 -117.83000 17706 ft 428 kts 138°
2026-05-01 15:00 33.27242 -117.78254 18344 ft 434 kts 138°
2026-05-01 15:00 33.24979 -117.75862 18633 ft 436 kts 138°
2026-05-01 15:00 33.22697 -117.73452 18903 ft 439 kts 138°
2026-05-01 15:01 33.20407 -117.71034 19196 ft 440 kts 138°
2026-05-01 15:01 33.18165 -117.68534 19465 ft 443 kts 133°
2026-05-01 15:01 33.16041 -117.65227 19769 ft 444 kts 119°
2026-05-01 15:01 33.14741 -117.61886 20036 ft 444 kts 109°
2026-05-01 15:02 33.13702 -117.58411 20297 ft 446 kts 107°
2026-05-01 15:02 33.13360 -117.57223 20381 ft 447 kts 107°
2026-05-01 15:02 33.11674 -117.51368 20808 ft 451 kts 107°
2026-05-01 15:02 33.10642 -117.47827 21064 ft 453 kts 108°
2026-05-01 15:03 33.09597 -117.44267 21317 ft 456 kts 108°
2026-05-01 15:03 33.08545 -117.40693 21557 ft 458 kts 108°
2026-05-01 15:03 33.07483 -117.37097 21801 ft 461 kts 108°
2026-05-01 15:03 33.06417 -117.33498 22071 ft 463 kts 108°
2026-05-01 15:04 33.05341 -117.29868 22312 ft 465 kts 108°
2026-05-01 15:04 33.04260 -117.26226 22558 ft 467 kts 108°
2026-05-01 15:04 33.03175 -117.22577 22818 ft 469 kts 108°
2026-05-01 15:04 33.02081 -117.18905 23037 ft 471 kts 108°
2026-05-01 15:05 33.00981 -117.15215 23275 ft 473 kts 108°
2026-05-01 15:05 32.99876 -117.11514 23520 ft 475 kts 108°
2026-05-01 15:05 32.98763 -117.07791 23745 ft 477 kts 108°
2026-05-01 15:05 32.97662 -117.04110 23951 ft 479 kts 108°
2026-05-01 15:06 32.96540 -117.00366 24158 ft 481 kts 108°
2026-05-01 15:06 32.95415 -116.96615 24365 ft 483 kts 108°
2026-05-01 15:06 32.94282 -116.92844 24562 ft 485 kts 108°
2026-05-01 15:06 32.93142 -116.89049 24754 ft 487 kts 108°
2026-05-01 15:07 32.91997 -116.85247 24943 ft 489 kts 109°
2026-05-01 15:07 32.90847 -116.81434 25157 ft 491 kts 109°
2026-05-01 15:07 32.89692 -116.77608 25353 ft 492 kts 109°
2026-05-01 15:07 32.88531 -116.73767 25547 ft 495 kts 109°
2026-05-01 15:08 32.87364 -116.69912 25753 ft 497 kts 109°
2026-05-01 15:08 32.86189 -116.66034 25969 ft 499 kts 109°
2026-05-01 15:08 32.85010 -116.62150 26169 ft 501 kts 109°
2026-05-01 15:08 32.83826 -116.58250 26390 ft 503 kts 109°
2026-05-01 15:09 32.82633 -116.54329 26572 ft 505 kts 109°
2026-05-01 15:09 32.81432 -116.50403 26780 ft 507 kts 109°
2026-05-01 15:09 32.80047 -116.46541 26991 ft 509 kts 114°
2026-05-01 15:09 32.78501 -116.42743 27199 ft 512 kts 116°
2026-05-01 15:10 32.76877 -116.38975 27418 ft 514 kts 117°
2026-05-01 15:10 32.73529 -116.31432 27819 ft 518 kts 117°
2026-05-01 15:10 32.71849 -116.27648 28007 ft 520 kts 117°
2026-05-01 15:11 32.70166 -116.23837 28234 ft 522 kts 117°
2026-05-01 15:11 32.66800 -116.16164 28625 ft 526 kts 117°
2026-05-01 15:11 32.65112 -116.12305 28840 ft 528 kts 117°
2026-05-01 15:12 32.63416 -116.08429 29041 ft 530 kts 117°
2026-05-01 15:12 32.59999 -116.00641 29439 ft 534 kts 117°
2026-05-01 15:12 32.58284 -115.96733 29650 ft 535 kts 117°
2026-05-01 15:13 32.53087 -115.84921 30170 ft 541 kts 117°
2026-05-01 15:14 32.49585 -115.76989 30502 ft 544 kts 118°
2026-05-01 15:14 32.47829 -115.73020 30683 ft 546 kts 118°
2026-05-01 15:14 32.44294 -115.65039 31018 ft 548 kts 118°
2026-05-01 15:15 32.40736 -115.57027 31337 ft 551 kts 118°
2026-05-01 15:15 32.37770 -115.50359 31728 ft 550 kts 118°
2026-05-01 15:16 32.34205 -115.42363 32267 ft 549 kts 118°
2026-05-01 15:16 32.30063 -115.33096 32780 ft 549 kts 119°
2026-05-01 15:17 32.27071 -115.26413 33144 ft 548 kts 119°
2026-05-01 15:18 32.21724 -115.14496 33831 ft 547 kts 120°
2026-05-01 15:18 32.19961 -115.10578 34029 ft 546 kts 120°
2026-05-01 15:19 32.14598 -114.98682 34662 ft 544 kts 120°
2026-05-01 15:19 32.11045 -114.90824 35076 ft 542 kts 120°
2026-05-01 15:19 32.09272 -114.86908 35262 ft 541 kts 120°
2026-05-01 15:20 32.05728 -114.79095 35645 ft 540 kts 120°
2026-05-01 15:20 32.03978 -114.75243 35817 ft 540 kts 120°
2026-05-01 15:20 32.02208 -114.71351 35998 ft 539 kts 120°
2026-05-01 15:21 32.00435 -114.67455 36189 ft 539 kts 120°
2026-05-01 15:21 31.98667 -114.63574 36370 ft 538 kts 121°
2026-05-01 15:21 31.96897 -114.59696 36552 ft 537 kts 121°
2026-05-01 15:21 31.95128 -114.55821 36726 ft 537 kts 121°
2026-05-01 15:22 31.91585 -114.48076 36881 ft 540 kts 121°
2026-05-01 15:22 31.88005 -114.40270 36872 ft 542 kts 121°
2026-05-01 15:23 31.84425 -114.32474 36870 ft 542 kts 121°
2026-05-01 15:23 31.80836 -114.24676 36869 ft 542 kts 121°
2026-05-01 15:24 31.77247 -114.16894 36877 ft 542 kts 121°
2026-05-01 15:24 31.73652 -114.09117 36887 ft 542 kts 121°
2026-05-01 15:25 31.70052 -114.01345 36894 ft 542 kts 121°
2026-05-01 15:25 31.66448 -113.93580 36900 ft 542 kts 121°
2026-05-01 15:26 31.62861 -113.85870 36915 ft 542 kts 121°
2026-05-01 15:26 31.59248 -113.78117 36923 ft 542 kts 121°
2026-05-01 15:27 31.55632 -113.70376 36934 ft 542 kts 121°
2026-05-01 15:28 31.50188 -113.58750 36942 ft 542 kts 121°
2026-05-01 15:28 31.46558 -113.51017 36941 ft 542 kts 121°
2026-05-01 15:29 31.41099 -113.39418 36943 ft 542 kts 121°
2026-05-01 15:30 31.33641 -113.24091 36942 ft 541 kts 124°
2026-05-01 15:31 31.21612 -113.01742 36946 ft 542 kts 125°
2026-05-01 15:32 31.13630 -112.86814 36951 ft 542 kts 125°
2026-05-01 15:34 31.01627 -112.64474 36948 ft 541 kts 125°